Flag for Montenegro Weather past 2 weeks in Nikšić, Montenegro

Now
53 °F

Light rain. Overcast.


Feels Like: 52 °F
Forecast: 44 / 58 °F
Wind: 5 mph from Southeast

Location: Niksic

Current Time: May 25, 2015 at 12:34:43 AM

Latest Report: May 24, 2015 at 10:00 PM


Visibility: 13 mi

Pressure: 29.93 "Hg

Humidity: 99%

Dew point: 53 °F

Location of NikšićLocation

Historic Weather in Nikšić — Graph

°F

Nikšić temperature yesterday

Maximum temperature yesterday: 65 °F (at 11:00 AM)
Minimum temperature yesterday: 43 °F (at 6:00 AM)
Average temperature yesterday: 58 °F

Past Weeks' High & Low Weather Summary

 TemperatureHumidityPressure
High81 °F (May 17, 2:00 PM)100% (May 9, 10:00 PM)30.25 "Hg (May 9, 10:00 PM)
Low43 °F (May 24, 6:00 AM)29% (May 11, 4:00 PM)29.75 "Hg (May 19, 2:00 PM)
Average63 °F69%29.98 "Hg
* Reported May 9 10:00 PM — May 24 10:00 PM, Nikšić, Weather by CustomWeather, © 2015

Note: Actual official high and low records may vary slightly from our data, if they occured in-between our weather recording intervals... More about our weather records

Advertising

Nikšić weather history for previous 24 hours

 ConditionsComfort  
Time TempWeatherWind HumidityBarometerVisibility
10:00 PM
Sun, May 24
53 °FLight rain. Overcast.5 mph99%29.93 "Hg12 mi
9:00 PM55 °FOvercast.3 mph100%29.90 "Hg12 mi
8:00 PM58 °FPartly sunny.3 mph82%29.87 "Hg12 mi
7:00 PM60 °FOvercast.2 mph71%29.85 "Hg12 mi
6:00 PM60 °FOvercast.7 mph77%29.83 "Hg12 mi
5:00 PM63 °FOvercast.7 mph74%29.82 "Hg12 mi
4:00 PM64 °FOvercast.5 mph70%29.82 "Hg12 mi
3:00 PM62 °FOvercast.7 mph77%29.84 "Hg12 mi
2:00 PM61 °FOvercast.8 mph82%29.84 "Hg12 mi
1:00 PM63 °FPartly sunny.6 mph62%29.83 "Hg12 mi
12:00 PM60 °FOvercast.6 mph72%29.84 "Hg12 mi
11:00 AM65 °FPartly sunny.2 mph52%29.82 "Hg12 mi
10:00 AM64 °FScattered clouds.1 mph61%29.83 "Hg12 mi
9:00 AM56 °FPartly sunny.2 mph88%29.88 "Hg12 mi
8:00 AM56 °FScattered clouds.2 mph78%29.88 "Hg12 mi
7:00 AM51 °FPassing clouds.2 mph100%29.91 "Hg12 mi
6:00 AM43 °FPassing clouds.2 mph99%29.94 "Hg12 mi
2:00 AM43 °FClear.3 mph100%29.99 "Hg12 mi
Weather by CustomWeather, © 2015

See weather overviewHow to use our weather pages